Time,TemperatureF,DewpointF,PressureIn,WindDirection,WindDirectionDegrees,WindSpeedMPH,WindSpeedGustMPH,Humidity,HourlyPrecipIn,Conditions,Clouds,dailyrainin,SoftwareType,DateUTC
2013-02-02 01:01:00,37.0,32.0,-100.00,WNW,293,0.0,6.0,82,-99.99,,,-99.99,,2013-02-02 08:01:00,
2013-02-02 01:11:00,37.0,32.0,-100.00,WNW,293,0.0,6.0,82,-99.99,,,-99.99,,2013-02-02 08:11:00,
2013-02-02 01:21:00,37.0,32.0,-100.00,WNW,293,0.0,6.0,82,-99.99,,,-99.99,,2013-02-02 08:21:00,
2013-02-02 01:31:00,37.0,32.0,-100.00,WNW,293,0.0,6.0,82,-99.99,,,-99.99,,2013-02-02 08:31:00,
2013-02-02 02:32:00,36.0,31.0,-100.00,North,350,9.0,14.0,81,-99.99,,,-99.99,,2013-02-02 09:32:00,
2013-02-02 02:42:00,36.0,31.0,-100.00,North,350,9.0,14.0,81,-99.99,,,-99.99,,2013-02-02 09:42:00,
2013-02-02 02:52:00,36.0,31.0,-100.00,North,350,9.0,14.0,81,-99.99,,,-99.99,,2013-02-02 09:52:00,
2013-02-02 03:01:00,36.0,31.0,-100.00,North,350,9.0,14.0,81,-99.99,,,-99.99,,2013-02-02 10:01:00,
2013-02-02 03:11:00,36.0,31.0,-100.00,North,350,9.0,14.0,81,-99.99,,,-99.99,,2013-02-02 10:11:00,
2013-02-02 05:02:00,35.0,29.0,-100.00,NNW,343,6.0,19.0,79,-99.99,,,-99.99,,2013-02-02 12:02:00,
2013-02-02 05:11:00,35.0,29.0,-100.00,NNW,343,6.0,19.0,79,-99.99,,,-99.99,,2013-02-02 12:11:00,
2013-02-02 05:22:00,35.0,29.0,-100.00,NNW,343,6.0,19.0,79,-99.99,,,-99.99,,2013-02-02 12:22:00,
2013-02-02 05:32:00,35.0,29.0,-100.00,NNW,343,6.0,19.0,79,-99.99,,,-99.99,,2013-02-02 12:32:00,
2013-02-02 05:42:00,35.0,29.0,-100.00,NNW,343,6.0,19.0,79,-99.99,,,-99.99,,2013-02-02 12:42:00,
2013-02-02 06:33:00,35.0,29.0,-100.00,NNW,330,16.0,18.0,78,-99.99,,,-99.99,,2013-02-02 13:33:00,
2013-02-02 06:42:00,35.0,29.0,-100.00,NNW,330,16.0,18.0,78,-99.99,,,-99.99,,2013-02-02 13:42:00,
2013-02-02 06:52:00,35.0,29.0,-100.00,NNW,330,16.0,18.0,78,-99.99,,,-99.99,,2013-02-02 13:52:00,
2013-02-02 07:02:00,35.0,29.0,-100.00,NNW,330,16.0,18.0,78,-99.99,,,-99.99,,2013-02-02 14:02:00,
2013-02-02 07:11:00,35.0,29.0,-100.00,NNW,330,16.0,18.0,78,-99.99,,,-99.99,,2013-02-02 14:11:00,
2013-02-02 11:22:00,38.0,31.0,-100.00,NE,47,12.0,20.0,77,-99.99,,,-99.99,,2013-02-02 18:22:00,
2013-02-02 11:32:00,38.0,31.0,-100.00,NE,47,12.0,20.0,77,-99.99,,,-99.99,,2013-02-02 18:32:00,
2013-02-02 11:42:00,38.0,31.0,-100.00,NE,47,12.0,20.0,77,-99.99,,,-99.99,,2013-02-02 18:42:00,
2013-02-02 11:52:00,38.0,31.0,-100.00,NE,47,12.0,20.0,77,-99.99,,,-99.99,,2013-02-02 18:52:00,
2013-02-02 12:02:00,38.0,31.0,-100.00,North,4,8.0,22.0,77,-99.99,,,-99.99,,2013-02-02 19:02:00,
2013-02-02 12:12:00,38.0,31.0,-100.00,North,4,8.0,22.0,77,-99.99,,,-99.99,,2013-02-02 19:12:00,
2013-02-02 12:21:00,38.0,31.0,-100.00,North,4,8.0,22.0,77,-99.99,,,-99.99,,2013-02-02 19:21:00,
2013-02-02 12:32:00,38.0,31.0,-100.00,North,4,8.0,22.0,77,-99.99,,,-99.99,,2013-02-02 19:32:00,
2013-02-02 12:42:00,38.0,31.0,-100.00,North,4,8.0,22.0,77,-99.99,,,-99.99,,2013-02-02 19:42:00,
2013-02-02 13:01:00,39.0,31.0,-100.00,ENE,57,0.0,14.0,74,-99.99,,,-99.99,,2013-02-02 20:01:00,
2013-02-02 13:11:00,39.0,31.0,-100.00,ENE,57,0.0,14.0,74,-99.99,,,-99.99,,2013-02-02 20:11:00,
2013-02-02 13:21:00,39.0,31.0,-100.00,North,358,0.0,13.0,73,-99.99,,,-99.99,,2013-02-02 20:21:00,
2013-02-02 13:32:00,39.0,31.0,-100.00,North,358,0.0,13.0,73,-99.99,,,-99.99,,2013-02-02 20:32:00,
2013-02-02 13:41:00,39.0,31.0,-100.00,North,358,0.0,13.0,73,-99.99,,,-99.99,,2013-02-02 20:41:00,
2013-02-02 13:52:00,39.0,30.0,-100.00,WNW,282,0.0,9.0,71,-99.99,,,-99.99,,2013-02-02 20:52:00,
2013-02-02 14:02:00,39.0,28.0,-100.00,West,265,5.0,12.0,65,-99.99,,,-99.99,,2013-02-02 21:02:00,
2013-02-02 14:11:00,39.0,28.0,-100.00,West,265,5.0,12.0,65,-99.99,,,-99.99,,2013-02-02 21:11:00,
2013-02-02 14:21:00,39.0,28.0,-100.00,West,265,5.0,12.0,65,-99.99,,,-99.99,,2013-02-02 21:21:00,
2013-02-02 14:32:00,39.0,27.0,-100.00,WNW,289,12.0,13.0,63,-99.99,,,-99.99,,2013-02-02 21:32:00,
2013-02-02 14:42:00,39.0,27.0,-100.00,WNW,289,12.0,13.0,63,-99.99,,,-99.99,,2013-02-02 21:42:00,
2013-02-02 14:52:00,39.0,27.0,-100.00,WNW,289,12.0,13.0,63,-99.99,,,-99.99,,2013-02-02 21:52:00,
2013-02-02 15:02:00,40.0,28.0,-100.00,NW,312,8.0,15.0,61,-99.99,,,-99.99,,2013-02-02 22:02:00,
2013-02-02 15:11:00,40.0,28.0,-100.00,NW,312,8.0,15.0,61,-99.99,,,-99.99,,2013-02-02 22:11:00,
2013-02-02 15:21:00,40.0,28.0,-100.00,NW,312,8.0,15.0,61,-99.99,,,-99.99,,2013-02-02 22:21:00,
2013-02-02 15:32:00,40.0,28.0,-100.00,NW,312,8.0,15.0,61,-99.99,,,-99.99,,2013-02-02 22:32:00,
2013-02-02 15:42:00,40.0,28.0,-100.00,NW,312,8.0,15.0,61,-99.99,,,-99.99,,2013-02-02 22:42:00,
2013-02-02 15:52:00,40.0,29.0,-100.00,NNW,334,0.0,14.0,64,-99.99,,,-99.99,,2013-02-02 22:52:00,
2013-02-02 16:02:00,39.0,28.0,-100.00,North,358,0.0,15.0,64,-99.99,,,-99.99,,2013-02-02 23:02:00,
2013-02-02 16:11:00,39.0,28.0,-100.00,North,358,0.0,15.0,64,-99.99,,,-99.99,,2013-02-02 23:11:00,
2013-02-02 16:21:00,39.0,28.0,-100.00,NW,317,11.0,17.0,64,-99.99,,,-99.99,,2013-02-02 23:21:00,
2013-02-02 16:32:00,39.0,28.0,-100.00,WNW,295,0.0,10.0,64,-99.99,,,-99.99,,2013-02-02 23:32:00,
2013-02-02 16:42:00,39.0,28.0,-100.00,WNW,295,0.0,10.0,64,-99.99,,,-99.99,,2013-02-02 23:42:00,
2013-02-02 16:52:00,39.0,27.0,-100.00,NW,322,0.0,8.0,63,-99.99,,,-99.99,,2013-02-02 23:52:00,
2013-02-02 17:02:00,39.0,27.0,-100.00,North,358,0.0,0.0,62,-99.99,,,-99.99,,2013-02-03 00:02:00,
2013-02-02 17:11:00,39.0,27.0,-100.00,North,358,0.0,0.0,62,-99.99,,,-99.99,,2013-02-03 00:11:00,
2013-02-02 17:22:00,39.0,27.0,-100.00,North,358,0.0,0.0,62,-99.99,,,-99.99,,2013-02-03 00:22:00,
2013-02-02 17:32:00,37.0,26.0,-100.00,NW,309,0.0,0.0,65,-99.99,,,-99.99,,2013-02-03 00:32:00,
2013-02-02 17:41:00,37.0,26.0,-100.00,NW,309,0.0,0.0,65,-99.99,,,-99.99,,2013-02-03 00:41:00,
2013-02-02 17:52:00,37.0,27.0,-100.00,NW,309,0.0,0.0,68,-99.99,,,-99.99,,2013-02-03 00:52:00,
2013-02-02 18:02:00,37.0,27.0,-100.00,NW,309,0.0,0.0,68,-99.99,,,-99.99,,2013-02-03 01:02:00,
2013-02-02 18:11:00,37.0,27.0,-100.00,NW,309,0.0,0.0,68,-99.99,,,-99.99,,2013-02-03 01:11:00,
2013-02-02 18:21:00,37.0,27.0,-100.00,NW,309,0.0,0.0,68,-99.99,,,-99.99,,2013-02-03 01:21:00,
2013-02-02 19:01:00,35.0,28.0,-100.00,NW,309,0.0,0.0,74,-99.99,,,-99.99,,2013-02-03 02:01:00,
2013-02-02 19:11:00,35.0,28.0,-100.00,NW,309,0.0,0.0,74,-99.99,,,-99.99,,2013-02-03 02:11:00,
2013-02-02 19:21:00,35.0,28.0,-100.00,NW,309,0.0,0.0,75,-99.99,,,-99.99,,2013-02-03 02:21:00,
2013-02-02 19:32:00,35.0,30.0,-100.00,NW,309,0.0,0.0,81,-99.99,,,-99.99,,2013-02-03 02:32:00,
2013-02-02 19:41:00,35.0,30.0,-100.00,NW,309,0.0,0.0,81,-99.99,,,-99.99,,2013-02-03 02:41:00,
2013-02-02 19:52:00,35.0,30.0,-100.00,NW,309,0.0,0.0,81,-99.99,,,-99.99,,2013-02-03 02:52:00,
2013-02-02 20:02:00,35.0,30.0,-100.00,NW,309,0.0,0.0,81,-99.99,,,-99.99,,2013-02-03 03:02:00,
2013-02-02 20:11:00,36.0,32.0,-100.00,West,267,0.0,0.0,85,-99.99,,,-99.99,,2013-02-03 03:11:00,
2013-02-02 20:21:00,36.0,32.0,-100.00,West,267,0.0,0.0,85,-99.99,,,-99.99,,2013-02-03 03:21:00,
2013-02-02 20:32:00,35.0,31.0,-100.00,West,267,0.0,0.0,85,-99.99,,,-99.99,,2013-02-03 03:32:00,
2013-02-02 20:42:00,35.0,31.0,-100.00,West,267,0.0,0.0,85,-99.99,,,-99.99,,2013-02-03 03:42:00,
2013-02-02 20:51:00,35.0,31.0,-100.00,West,267,0.0,0.0,86,-99.99,,,-99.99,,2013-02-03 03:51:00,
2013-02-02 21:01:00,35.0,31.0,-100.00,West,267,0.0,0.0,86,-99.99,,,-99.99,,2013-02-03 04:01:00,
2013-02-02 21:11:00,35.0,31.0,-100.00,West,267,0.0,0.0,86,-99.99,,,-99.99,,2013-02-03 04:11:00,
2013-02-02 21:21:00,35.0,31.0,-100.00,West,267,0.0,0.0,86,-99.99,,,-99.99,,2013-02-03 04:21:00,
2013-02-02 21:32:00,33.0,30.0,-100.00,NW,319,8.0,13.0,88,-99.99,,,-99.99,,2013-02-03 04:32:00,
2013-02-02 21:42:00,33.0,30.0,-100.00,NW,319,8.0,13.0,88,-99.99,,,-99.99,,2013-02-03 04:42:00,
2013-02-02 21:52:00,33.0,30.0,-100.00,NNW,337,7.0,7.0,89,-99.99,,,-99.99,,2013-02-03 04:52:00,
2013-02-02 22:03:00,35.0,31.0,-100.00,WNW,285,13.0,14.0,86,-99.99,,,-99.99,,2013-02-03 05:03:00,
2013-02-02 22:11:00,35.0,31.0,-100.00,WNW,285,13.0,14.0,86,-99.99,,,-99.99,,2013-02-03 05:11:00,
2013-02-02 22:22:00,35.0,31.0,-100.00,WNW,285,13.0,14.0,86,-99.99,,,-99.99,,2013-02-03 05:22:00,
2013-02-02 22:32:00,35.0,31.0,-100.00,WNW,293,7.0,10.0,86,-99.99,,,-99.99,,2013-02-03 05:32:00,
2013-02-02 22:41:00,35.0,31.0,-100.00,WNW,293,7.0,10.0,86,-99.99,,,-99.99,,2013-02-03 05:41:00,
2013-02-02 22:52:00,35.0,31.0,-100.00,West,278,7.0,13.0,85,-99.99,,,-99.99,,2013-02-03 05:52:00,
2013-02-02 23:02:00,35.0,31.0,-100.00,WNW,282,9.0,12.0,84,-99.99,,,-99.99,,2013-02-03 06:02:00,
2013-02-02 23:11:00,35.0,31.0,-100.00,WNW,282,9.0,12.0,84,-99.99,,,-99.99,,2013-02-03 06:11:00,
2013-02-02 23:21:00,35.0,31.0,-100.00,WNW,282,9.0,12.0,84,-99.99,,,-99.99,,2013-02-03 06:21:00,
2013-02-02 23:32:00,36.0,32.0,-100.00,WNW,299,6.0,10.0,84,-99.99,,,-99.99,,2013-02-03 06:32:00,
2013-02-02 23:41:00,36.0,32.0,-100.00,WNW,299,6.0,10.0,84,-99.99,,,-99.99,,2013-02-03 06:41:00,
2013-02-02 23:52:00,36.0,32.0,-100.00,WNW,299,6.0,10.0,84,-99.99,,,-99.99,,2013-02-03 06:52:00,